Temp
-12 -12 -12 -12 -12 -12 -12 -13 -13 -14 -13 -13 -12 -12 -12 -11 -11 -11 -11 -11 -11 -11 -11 -11 -11 -11 -11 -12 -12 -12 -12 -13 -13 -13 -13 -14 -14 -14 -14 -14 -14 -15
-13 -12 -12 -12 -12 -12 -12 -13 -13 -14 -14 -13 -13 -12 -12 -12 -12 -12 -12 -12 -12 -12 -11 -11 -11 -12 -12 -12 -12 -12 -12 -13 -13 -13 -13 -14 -14 -14 -14 -15 -15 -15
-13 -13 -13 -12 -13 -13 -12 -13 -13 -13 -14 -14 -14 -13 -13 -13 -12 -12 -12 -12 -12 -12 -12 -12 -12 -12 -12 -12 -12 -13 -13 -13 -13 -13 -14 -14 -14 -14 -15 -15 -15 -15
-13 -13 -13 -13 -13 -13 -13 -13 -13 -13 -13 -14 -14 -14 -13 -13 -13 -13 -12 -12 -12 -12 -12 -13 -13 -13 -13 -13 -13 -13 -13 -13 -13 -14 -14 -14 -14 -15 -15 -16 -16 -16
-13 -13 -13 -13 -13 -13 -13 -13 -13 -13 -13 -13 -14 -14 -13 -13 -13 -13 -13 -13 -13 -13 -13 -13 -13 -13 -13 -13 -13 -13 -13 -13 -14 -14 -15 -15 -15 -15 -16 -16 -16 -17
-13 -13 -13 -13 -13 -13 -13 -13 -14 -13 -13 -13 -14 -14 -14 -14 -13 -13 -13 -13 -13 -13 -13 -13 -13 -13 -13 -13 -13 -13 -13 -14 -14 -15 -15 -15 -15 -16 -16 -16 -17 -17
-14 -14 -13 -13 -13 -13 -13 -14 -14 -13 -13 -14 -14 -14 -14 -14 -14 -14 -14 -13 -13 -13 -13 -13 -13 -13 -13 -13 -13 -13 -14 -14 -15 -15 -16 -16 -16 -17 -17 -17 -17 -17
-14 -14 -14 -14 -14 -13 -14 -14 -14 -14 -14 -14 -14 -14 -14 -14 -14 -14 -14 -14 -14 -14 -14 -13 -13 -13 -13 -13 -14 -14 -14 -15 -15 -16 -16 -17 -17 -17 -17 -17 -18 -18
-14 -14 -14 -14 -14 -14 -14 -14 -14 -14 -14 -14 -14 -14 -14 -15 -15 -14 -14 -14 -14 -14 -14 -14 -14 -14 -14 -14 -14 -14 -15 -15 -16 -17 -17 -17 -17 -17 -18 -18 -18 -18
-15 -14 -14 -14 -14 -14 -14 -14 -14 -14 -14 -14 -14 -14 -14 -15 -14 -14 -14 -14 -14 -14 -14 -14 -14 -15 -15 -15 -15 -15 -16 -17 -17 -17 -17 -18 -18 -18 -18 -18 -18 -19
-15 -15 -15 -15 -15 -15 -14 -14 -14 -14 -14 -14 -14 -14 -14 -14 -14 -14 -14 -14 -14 -14 -15 -15 -15 -16 -16 -16 -16 -17 -17 -17 -18 -18 -18 -18 -18 -18 -19 -19 -19 -19
-15 -15 -15 -15 -15 -15 -15 -15 -14 -14 -14 -14 -14 -14 -14 -14 -14 -14 -14 -14 -15 -15 -15 -16 -16 -17 -17 -17 -17 -18 -18 -18 -18 -19 -19 -19 -19 -19 -19 -19 -19 -19
-15 -15 -15 -15 -15 -15 -15 -15 -15 -15 -15 -15 -15 -15 -15 -15 -15 -15 -15 -15 -15 -16 -16 -17 -17 -17 -17 -18 -18 -18 -18 -18 -19 -19 -19 -20 -20 -19 -19 -19 -19 -19
-16 -15 -15 -15 -16 -16 -16 -15 -15 -15 -15 -16 -16 -16 -16 -16 -16 -16 -16 -16 -17 -17 -17 -17 -17 -18 -18 -18 -18 -18 -18 -19 -19 -20 -20 -20 -20 -19 -20 -20 -20 -19
-16 -16 -16 -16 -16 -16 -16 -16 -16 -16 -16 -16 -17 -17 -17 -17 -17 -17 -17 -18 -18 -18 -18 -18 -18 -18 -18 -18 -18 -19 -19 -20 -20 -20 -20 -20 -20 -20 -20 -20 -20 -20
-16 -16 -16 -16 -16 -16 -16 -16 -16 -17 -17 -17 -17 -18 -18 -18 -18 -18 -18 -18 -18 -18 -18 -18 -18 -18 -18 -19 -19 -19 -20 -20 -20 -20 -20 -20 -20 -20 -21 -21 -20 -20
-16 -16 -17 -17 -17 -17 -17 -17 -17 -17 -17 -18 -18 -18 -18 -18 -18 -18 -18 -19 -19 -19 -19 -19 -19 -19 -19 -19 -20 -20 -20 -20 -20 -20 -20 -20 -20 -21 -21 -21 -21 -21
-17 -17 -17 -17 -17 -17 -17 -17 -17 -18 -18 -18 -18 -19 -19 -19 -19 -19 -19 -19 -19 -19 -19 -20 -20 -20 -20 -20 -20 -20 -20 -20 -20 -20 -20 -21 -21 -21 -21 -21 -21 -21
-17 -17 -17 -17 -18 -18 -18 -18 -18 -18 -18 -19 -19 -19 -19 -19 -19 -20 -20 -20 -20 -20 -20 -21 -21 -21 -21 -20 -20 -20 -20 -20 -20 -21 -21 -21 -21 -21 -21 -21 -21 -21
-18 -18 -18 -18 -18 -18 -18 -18 -18 -19 -19 -19 -19 -20 -20 -20 -20 -20 -20 -21 -21 -21 -21 -21 -21 -21 -21 -21 -21 -21 -21 -21 -21 -21 -21 -21 -21 -21 -21 -21 -21 -21
-18 -18 -18 -18 -18 -18 -18 -19 -19 -19 -19 -20 -20 -20 -20 -21 -21 -21 -21 -21 -21 -21 -21 -21 -21 -21 -21 -21 -21 -21 -21 -21 -21 -21 -21 -21 -21 -21 -21 -21 -21 -21
-18 -18 -18 -19 -19 -19 -19 -19 -19 -20 -20 -20 -21 -21 -21 -21 -21 -21 -21 -21 -21 -22 -22 -22 -21 -21 -21 -21 -21 -21 -21 -22 -21 -21 -21 -21 -21 -22 -22 -22 -22 -22
-19 -19 -19 -19 -19 -19 -20 -20 -20 -20 -20 -21 -21 -21 -21 -21 -21 -21 -21 -21 -22 -22 -22 -22 -21 -21 -21 -21 -21 -21 -22 -22 -22 -22 -22 -22 -22 -22 -22 -23 -23 -23
-19 -19 -19 -20 -20 -20 -20 -20 -20 -20 -21 -21 -21 -21 -21 -21 -21 -21 -22 -21 -21 -21 -21 -21 -21 -21 -21 -21 -21 -22 -22 -22 -22 -22 -22 -22 -23 -23 -23 -23 -23 -24
-19 -19 -20 -20 -20 -21 -21 -21 -21 -21 -21 -21 -21 -21 -21 -21 -21 -22 -21 -21 -21 -21 -21 -21 -21 -21 -22 -22 -22 -22 -22 -22 -22 -22 -23 -23 -23 -23 -23 -24 -24 -24
-20 -20 -20 -20 -21 -21 -21 -21 -21 -21 -21 -21 -21 -21 -21 -21 -21 -22 -22 -22 -22 -22 -21 -21 -21 -22 -22 -22 -22 -22 -23 -23 -23 -23 -23 -23 -23 -23 -24 -24 -24 -24
Height
5691 5690 5688 5688 5687 5687 5686 5685 5683 5680 5677 5676 5674 5673 5671 5670 5669 5668 5667 5667 5666 5665 5664 5663 5663 5662 5660 5659 5658 5657 5655 5653 5652 5650 5648 5646 5645 5643 5641 5640 5638 5636
5683 5682 5681 5680 5680 5679 5679 5678 5677 5675 5672 5670 5668 5667 5665 5664 5662 5661 5660 5660 5659 5658 5657 5656 5655 5654 5652 5651 5650 5648 5646 5645 5643 5641 5639 5636 5635 5633 5631 5630 5627 5625
5675 5674 5673 5673 5672 5671 5671 5671 5669 5668 5667 5665 5662 5660 5658 5657 5655 5655 5654 5653 5651 5650 5649 5648 5647 5646 5644 5643 5641 5639 5637 5636 5634 5632 5629 5626 5625 5623 5621 5619 5617 5615
5667 5666 5665 5665 5664 5664 5663 5662 5662 5661 5660 5658 5656 5653 5652 5650 5648 5647 5646 5645 5644 5643 5641 5640 5638 5637 5635 5634 5632 5630 5628 5626 5624 5622 5619 5616 5615 5613 5611 5609 5607 5605
5659 5658 5658 5656 5655 5655 5654 5654 5653 5652 5652 5650 5648 5646 5644 5643 5641 5640 5638 5637 5636 5634 5633 5631 5630 5628 5627 5625 5623 5621 5619 5616 5614 5612 5609 5606 5605 5603 5601 5599 5598 5595
5652 5650 5649 5648 5646 5646 5646 5645 5644 5643 5642 5641 5640 5639 5637 5635 5634 5632 5630 5629 5628 5626 5624 5622 5621 5619 5618 5616 5614 5612 5610 5607 5605 5603 5600 5597 5594 5593 5591 5589 5588 5585
5643 5642 5641 5639 5638 5637 5637 5636 5635 5634 5634 5633 5632 5630 5629 5627 5625 5623 5622 5620 5619 5617 5616 5614 5612 5611 5609 5608 5605 5603 5601 5598 5595 5593 5590 5587 5584 5582 5581 5580 5578 5576
5635 5634 5633 5632 5630 5629 5628 5628 5627 5626 5625 5624 5623 5622 5621 5619 5617 5615 5613 5611 5610 5608 5607 5605 5604 5602 5601 5599 5597 5594 5591 5588 5586 5583 5580 5578 5575 5573 5571 5570 5569 5567
5628 5626 5625 5624 5622 5621 5620 5619 5619 5618 5617 5615 5614 5613 5612 5610 5608 5606 5604 5602 5601 5600 5598 5597 5595 5594 5592 5590 5587 5584 5581 5578 5576 5573 5571 5569 5566 5564 5562 5561 5559 5557
5620 5619 5617 5616 5614 5613 5612 5611 5611 5610 5608 5606 5604 5603 5602 5601 5599 5597 5595 5593 5592 5590 5589 5587 5586 5584 5582 5580 5578 5575 5572 5569 5567 5564 5562 5560 5557 5555 5553 5552 5550 5547
5613 5612 5610 5608 5606 5605 5604 5604 5603 5601 5598 5596 5595 5593 5592 5591 5589 5588 5586 5584 5583 5581 5579 5577 5576 5574 5572 5570 5568 5566 5563 5560 5558 5556 5554 5551 5549 5546 5544 5542 5540 5538
5605 5604 5602 5600 5599 5597 5597 5596 5594 5592 5589 5587 5586 5584 5583 5582 5580 5578 5577 5575 5573 5571 5569 5568 5566 5564 5562 5561 5559 5557 5554 5552 5549 5547 5545 5543 5540 5538 5535 5533 5530 5528
5596 5595 5594 5593 5591 5590 5589 5588 5586 5583 5581 5579 5577 5576 5574 5573 5571 5569 5568 5566 5564 5562 5560 5559 5557 5555 5553 5552 5550 5548 5546 5544 5541 5538 5536 5534 5531 5529 5525 5523 5521 5518
5588 5587 5587 5585 5584 5582 5581 5579 5577 5575 5573 5571 5569 5568 5566 5564 5563 5561 5559 5557 5555 5554 5552 5550 5548 5546 5545 5543 5541 5540 5537 5535 5533 5530 5527 5525 5522 5519 5515 5512 5511 5508
5581 5580 5578 5576 5575 5574 5572 5571 5569 5567 5565 5563 5561 5559 5558 5556 5554 5552 5551 5549 5547 5545 5544 5542 5540 5538 5536 5534 5532 5531 5529 5526 5524 5521 5518 5515 5512 5508 5506 5503 5500 5499
5572 5570 5569 5568 5566 5565 5564 5562 5561 5559 5557 5555 5553 5551 5549 5548 5546 5544 5543 5541 5538 5537 5535 5533 5531 5528 5527 5525 5523 5522 5520 5518 5516 5513 5509 5505 5502 5499 5496 5494 5491 5489
5563 5561 5560 5559 5558 5556 5555 5554 5552 5550 5548 5547 5545 5543 5541 5539 5537 5536 5534 5532 5530 5528 5526 5523 5521 5519 5518 5516 5515 5513 5512 5510 5507 5504 5500 5496 5493 5490 5487 5484 5481 5479
5553 5553 5552 5551 5549 5548 5546 5545 5543 5541 5540 5538 5537 5535 5533 5531 5529 5527 5525 5523 5521 5519 5517 5515 5513 5511 5509 5508 5506 5505 5503 5501 5498 5494 5491 5487 5484 5481 5478 5474 5471 5469
5545 5544 5543 5542 5540 5539 5537 5536 5534 5533 5531 5529 5528 5526 5524 5522 5520 5518 5516 5514 5512 5510 5508 5507 5505 5503 5501 5499 5497 5496 5494 5492 5490 5485 5482 5479 5475 5472 5469 5465 5462 5460
5536 5535 5534 5532 5531 5530 5529 5527 5526 5524 5522 5521 5519 5518 5516 5514 5512 5510 5508 5506 5504 5502 5500 5498 5496 5494 5493 5490 5488 5487 5485 5484 5482 5478 5474 5471 5467 5463 5460 5457 5453 5450
5526 5525 5524 5523 5522 5521 5520 5519 5517 5515 5514 5512 5511 5509 5507 5506 5504 5502 5500 5498 5496 5494 5492 5490 5488 5486 5484 5482 5480 5478 5476 5474 5472 5469 5466 5462 5458 5454 5451 5448 5444 5441
5516 5515 5515 5514 5513 5512 5511 5510 5508 5507 5505 5503 5502 5500 5499 5497 5496 5494 5492 5490 5488 5486 5483 5481 5480 5478 5475 5473 5470 5468 5466 5465 5462 5459 5456 5452 5449 5445 5442 5438 5434 5431
5506 5506 5505 5505 5504 5503 5502 5501 5499 5498 5496 5495 5493 5492 5490 5489 5487 5485 5484 5482 5479 5477 5475 5473 5471 5469 5466 5464 5461 5458 5456 5455 5453 5449 5446 5443 5439 5436 5432 5429 5425 5421
5497 5497 5496 5495 5494 5493 5492 5491 5490 5488 5487 5485 5484 5483 5482 5480 5479 5477 5475 5473 5471 5469 5467 5465 5463 5460 5457 5454 5451 5449 5447 5445 5443 5440 5436 5433 5430 5427 5423 5419 5415 5412
5488 5488 5487 5485 5484 5484 5483 5481 5480 5479 5478 5476 5475 5474 5473 5471 5470 5468 5467 5464 5462 5460 5458 5457 5455 5452 5449 5446 5442 5440 5438 5435 5433 5430 5427 5424 5421 5418 5414 5411 5407 5403
5477 5477 5476 5476 5475 5474 5473 5472 5471 5470 5468 5467 5466 5465 5464 5463 5461 5460 5458 5456 5453 5451 5449 5447 5445 5443 5440 5437 5434 5432 5429 5427 5424 5421 5418 5415 5412 5409 5406 5402 5399 5395
Wind_Speed
49 49 49 50 50 49 47 45 43 45 51 53 53 53 53 53 53 52 53 53 53 53 53 53 53 54 55 56 57 58 59 61 62 62 63 64 64 65 65 65 66 66
49 49 50 51 52 52 50 50 48 46 48 51 53 53 53 53 53 53 53 53 53 54 54 55 56 57 58 59 59 60 62 63 64 64 65 66 66 66 65 65 65 66
50 50 50 51 52 54 53 52 53 51 49 50 53 54 54 54 54 54 54 54 54 55 56 58 59 60 60 61 61 62 64 65 66 66 66 67 67 67 66 66 65 66
53 52 51 51 51 52 53 52 53 53 53 53 54 56 57 56 57 57 57 57 58 59 60 60 61 61 61 62 63 64 66 67 68 67 67 67 68 67 67 66 66 66
54 52 51 51 51 50 51 52 52 53 54 55 56 58 59 59 60 60 60 60 60 60 60 61 61 61 62 62 64 66 68 69 69 68 68 68 69 68 67 67 66 67
53 52 52 52 51 51 50 50 51 51 52 53 54 56 58 59 59 60 59 58 58 58 59 60 61 62 63 64 66 68 70 71 71 71 70 70 69 69 68 68 67 67
53 52 51 51 51 51 50 50 51 50 50 50 51 53 55 57 57 58 58 57 57 59 60 62 63 64 66 67 70 71 73 74 73 72 72 71 70 69 69 68 68 68
52 51 50 50 51 51 50 51 52 51 50 51 52 53 55 57 58 58 59 59 60 61 63 64 66 67 69 70 72 74 75 75 74 73 72 71 70 70 69 69 69 69
51 51 51 50 50 50 50 51 52 52 53 54 55 57 58 59 60 60 60 61 62 63 64 66 68 69 71 72 74 75 76 76 74 73 72 71 71 70 70 70 69 69
51 52 51 49 49 49 51 52 54 55 56 57 58 59 60 61 61 61 62 63 64 65 66 68 69 70 71 72 74 75 75 74 73 72 71 70 70 70 69 68 68 69
51 50 49 49 50 51 53 54 55 56 58 59 60 60 61 62 62 62 64 65 66 67 68 68 68 68 69 70 71 71 71 71 70 69 68 67 67 68 68 69 70 71
51 50 50 50 52 53 54 55 56 57 58 59 60 60 61 63 64 65 66 67 67 67 67 66 66 65 65 65 65 65 66 66 65 63 63 64 65 67 69 71 72 72
51 52 52 53 55 56 57 58 58 58 59 60 61 61 63 64 65 66 66 67 66 66 65 63 62 62 61 61 61 61 62 62 61 61 62 65 68 71 72 73 73 74
54 55 56 58 59 59 59 58 58 59 60 62 62 63 64 65 65 66 66 65 64 63 62 61 62 62 62 62 63 63 63 62 61 62 64 68 72 73 72 72 72 74
57 59 60 61 60 59 58 57 58 60 62 63 64 64 64 64 63 63 63 63 62 62 62 62 64 65 65 65 65 63 62 61 62 63 65 68 70 70 69 70 72 74
59 61 61 61 60 58 58 59 60 61 63 64 63 63 62 61 61 62 62 62 62 63 63 64 65 66 66 65 64 62 61 61 62 63 65 65 66 66 67 69 72 75
59 60 61 61 60 60 60 61 62 63 63 63 63 63 62 62 63 63 63 64 65 65 65 65 65 64 63 62 62 62 62 62 63 64 65 65 65 66 67 68 71 74
59 61 61 62 61 62 62 63 63 64 64 64 65 65 65 65 65 65 66 66 65 64 62 61 60 59 59 60 61 62 63 64 65 65 65 65 65 66 67 68 69 71
60 62 63 63 63 63 64 64 64 65 65 66 67 65 64 62 62 62 62 60 59 57 55 55 55 57 60 62 64 66 66 67 67 68 67 66 65 65 66 66 67 68
62 64 65 65 65 65 65 65 65 66 67 66 64 62 59 57 56 56 55 54 53 52 53 54 56 58 61 64 65 66 66 67 68 68 68 66 65 65 65 65 66 66
65 66 67 67 67 67 66 66 66 66 65 63 59 57 55 53 53 52 52 52 53 53 54 56 58 60 62 64 65 66 66 66 66 67 66 64 64 64 64 64 65 66
67 68 69 69 68 67 66 66 66 64 62 59 56 54 52 51 50 51 52 53 54 55 57 58 60 62 65 67 70 70 69 67 65 65 64 64 64 64 64 64 65 66
68 69 68 67 66 66 66 65 63 62 60 58 57 55 52 50 50 51 53 54 56 58 60 61 63 65 68 71 72 73 71 68 66 65 65 65 64 64 63 64 65 67
68 67 66 66 65 64 63 61 61 60 60 59 58 57 55 53 52 53 54 56 58 60 62 64 65 67 70 71 71 69 67 66 64 65 65 63 62 61 62 64 66 68
69 68 68 66 63 61 59 59 60 61 61 61 60 59 58 57 57 57 58 60 62 63 64 65 66 68 69 69 68 65 62 61 61 62 61 60 59 60 62 64 67 69
72 71 69 64 59 58 59 61 62 63 64 63 61 60 60 60 61 61 63 64 64 65 67 67 67 68 68 68 67 64 61 58 59 59 59 58 58 60 63 65 68 70
Wind_Direction
282 279 277 276 277 278 275 273 278 282 281 279 277 275 274 274 274 273 274 275 275 276 277 279 281 282 283 284 284 285 285 285 285 285 284 284 284 284 284 284 283 283
281 279 276 275 276 278 278 275 274 278 280 280 278 277 276 275 274 274 275 276 277 278 279 280 281 281 282 283 285 286 286 286 286 286 285 285 284 285 285 284 284 283
281 280 279 278 277 278 279 278 275 275 277 279 279 278 278 277 277 277 277 278 279 280 281 282 282 283 283 284 285 286 286 286 285 285 284 284 285 285 285 284 284 283
283 284 283 282 280 280 280 279 278 278 278 278 279 278 279 279 279 279 280 281 281 282 282 283 283 284 284 285 286 286 285 284 284 284 283 283 284 284 285 284 283 283
285 286 285 284 283 282 281 280 280 280 279 278 278 278 278 279 280 281 281 282 283 283 283 283 284 284 285 285 285 285 284 283 283 283 283 283 283 283 283 283 283 283
285 284 284 283 283 283 283 282 281 280 279 279 278 277 278 279 281 282 282 283 284 284 284 284 285 286 286 286 286 285 284 284 283 282 282 282 282 282 282 282 282 282
281 281 281 282 283 284 284 283 282 282 281 280 279 278 278 279 280 281 282 283 284 285 286 286 287 287 287 287 286 286 285 284 283 282 281 281 282 282 282 281 281 281
278 279 280 281 282 283 283 283 283 283 282 281 281 280 279 279 280 281 282 284 285 286 287 287 287 287 287 286 286 285 285 284 283 282 281 282 282 282 281 281 281 281
277 278 280 281 282 282 282 282 282 282 282 282 282 282 281 281 281 282 284 285 286 286 287 287 287 287 286 286 286 285 284 283 283 282 282 283 283 283 282 282 283 284
276 278 279 280 280 281 281 281 282 282 282 282 282 282 282 282 282 283 284 285 286 286 287 287 288 287 287 286 285 285 284 284 283 283 283 284 284 284 284 285 287 288
276 276 277 278 279 281 282 282 282 282 282 282 282 282 282 283 284 284 285 286 287 288 288 289 289 288 287 287 287 286 285 285 285 285 285 285 286 287 288 289 290 291
276 275 276 278 281 283 284 283 283 283 282 282 282 283 284 285 286 286 286 287 287 288 289 289 289 289 289 289 289 288 288 287 287 288 288 289 290 291 291 292 292 292
274 274 277 280 284 285 285 285 285 284 284 284 284 285 285 286 287 287 287 287 287 288 288 289 289 289 290 291 291 291 290 289 289 290 292 294 294 294 294 294 294 293
274 276 279 282 285 286 285 286 286 286 286 286 287 287 287 287 287 287 287 287 287 287 288 288 288 289 290 291 292 292 291 291 291 292 293 294 294 294 295 296 296 294
277 279 281 284 287 287 287 287 287 287 287 287 287 287 287 287 287 286 287 286 286 286 287 287 288 290 291 291 291 292 292 292 292 292 291 292 293 295 297 298 297 295
280 281 283 286 288 287 287 287 286 286 285 285 286 286 286 286 286 286 286 286 286 287 288 289 290 290 290 290 290 291 291 291 291 291 291 292 294 296 297 297 296 293
281 281 283 285 286 285 285 284 283 283 283 284 285 285 285 286 286 286 286 287 288 289 290 290 290 290 290 290 290 290 290 291 292 293 292 293 294 295 295 295 294 292
279 279 281 282 282 282 282 281 281 282 283 284 286 286 287 287 287 287 288 289 289 290 290 290 290 290 290 290 291 291 292 294 296 297 297 296 295 294 294 294 294 292
276 276 278 279 279 279 279 280 280 281 283 286 288 289 289 288 288 287 288 288 288 287 288 289 289 289 290 291 292 293 293 295 297 298 298 297 296 295 295 296 294 293
276 275 276 277 277 278 278 279 280 282 285 287 289 289 288 287 286 286 285 285 285 285 287 289 289 289 289 290 291 292 292 293 295 296 296 295 295 296 296 296 295 294
275 275 275 276 276 277 278 280 282 284 285 287 288 287 285 284 284 283 284 286 287 289 291 292 292 292 292 292 292 292 293 295 295 294 294 294 295 295 296 295 295 295
275 275 274 274 275 277 279 281 283 284 286 287 287 284 282 282 282 283 286 289 291 293 294 294 295 296 296 296 295 293 293 295 295 294 294 294 294 294 295 295 295 295
274 273 273 273 275 278 280 282 283 284 286 287 285 283 281 279 280 283 288 291 292 292 293 294 294 297 299 299 297 294 292 292 293 294 295 295 294 294 295 296 297 296
273 272 273 275 277 279 280 281 282 284 286 287 285 283 280 279 280 284 289 292 295 295 294 293 293 297 301 303 300 295 292 291 292 295 297 296 295 296 298 299 299 298
274 274 275 277 277 277 278 280 282 284 286 286 285 282 280 279 281 285 289 293 297 298 297 295 294 296 301 304 302 297 294 294 296 297 298 296 297 299 300 301 301 300
275 275 276 276 275 275 278 280 282 283 284 284 283 280 279 280 282 285 289 292 295 298 298 297 297 298 301 305 304 300 297 297 298 298 297 296 298 299 300 301 301 300